Location: Caltech
(34.1382°N, 118.1253°W)
Time: 15:06:43
(UTC-07:00)

AO-7 - Visible Passes

Search period start: 19 April 2014 00:00
Search period end: 29 April 2014 00:00
Orbit: 1440 x 1459 km, 101.5° (Epoch: 18 April)

Date Brightness Start Highest point End Pass type
(mag) Time Alt. Az. Time Alt. Az. Time Alt. Az.
19 Apr ? 04:49:39 10° NNE 04:57:30 44° E 05:05:19 10° S visible
20 Apr ? 03:52:23 10° ENE 03:57:01 16° E 04:01:38 10° SE visible
20 Apr ? 05:42:12 10° NNE 05:50:33 86° WNW 05:58:54 10° SSW visible
21 Apr ? 04:42:52 10° NNE 04:50:33 40° E 04:58:11 10° SSE visible
22 Apr ? 03:46:12 10° ENE 03:50:00 14° E 03:53:47 10° ESE visible
22 Apr ? 05:35:17 10° NNE 05:43:39 87° ESE 05:52:01 10° SSW visible
23 Apr ? 04:36:07 10° NE 04:43:35 36° E 04:51:01 10° SSE visible
24 Apr ? 03:40:21 10° ENE 03:42:59 12° E 03:45:36 10° ESE visible
24 Apr ? 05:28:23 10° NNE 05:36:45 79° ESE 05:45:05 10° SSW visible
25 Apr ? 04:29:23 10° NE 04:36:37 32° E 04:43:48 10° SSE visible
26 Apr ? 05:21:30 10° NNE 05:29:50 72° ESE 05:38:09 10° S visible
27 Apr ? 04:22:42 10° NE 04:29:39 29° E 04:36:33 10° SSE visible
28 Apr ? 05:14:37 10° NNE 05:22:55 66° ESE 05:31:10 10° S visible
